Fort Benning, AL

3:40 AM CDT on August 17, 2017 (GMT -0500)
Lawson Army Air Field

Weather History for KLSF - December, 2012

Change the Weather History Date:

Monday, December 3, 2012

  Actual Average Record
Temperature  
Mean Temperature 61 °F -  
Max Temperature 78 °F 62 °F 78 °F (2012)
Min Temperature 44 °F 36 °F 24 °F (2008)
Degree Days  
Heating Degree Days 4    
Growing Degree Days 11 (Base 50)    
Moisture  
Dew Point 47 °F    
Average Humidity 96    
Maximum Humidity 100    
Minimum Humidity 38    
Precipitation  
Precipitation 0.00 in - - ()
Sea Level Pressure  
Sea Level Pressure 30.27 in    
Wind  
Wind Speed 0 mph (South)    
Max Wind Speed 10 mph    
Max Gust Speed -    
Visibility 3 miles    
Events Fog    
Averages and records for this station are not official NWS values.
T = Trace of Precipitation, MM = Missing Value Source: NWS Daily Summary

Daily Weather History Graph

Daily Weather History Graph

Search for Another Location

Airport or City:

Trip Planner

Search our weather history database for the weather conditions in past years. The results will help you decide how hot, cold, wet, or windy it might be!

Date:

Astronomy

Dec. 03, 2012 Rise Set
Actual Time 7:25 AM EST 5:34 PM EST
Civil Twilight 6:58 AM EST 6:01 PM EST
Nautical Twilight 6:28 AM EST 6:31 PM EST
Astronomical Twilight 5:58 AM EST 7:01 PM EST
Moon 10:11 PM EST (12/3) 10:56 AM EST (12/3)
Length of Visible Light 11h 02m
Length of Day
10h 09m
Waning Gibbous, 78% of the Moon is Illuminated
Dec 3
Waning Gibbous
Dec 6
Last Quarter
Dec 13
New
Dec 20
First Quarter
Dec 28
Full

Hourly Weather History & Observations

Time (EST) Temp. Windchill Dew Point Humidity Pressure Visibility Wind Dir Wind Speed Gust Speed Precip Events Conditions
12:05 AM 48.2 °F - 48.2 °F 100% 30.27 in 2.5 mi Calm Calm - N/A   Clear
12:08 AM 48.2 °F - 48.2 °F 100% 30.27 in 2.0 mi Calm Calm - N/A   Clear
12:09 AM 48.2 °F - 48.2 °F 100% 30.27 in 1.8 mi Calm Calm - N/A   Clear
12:11 AM 48.2 °F - 48.2 °F 100% 30.27 in 1.8 mi Calm Calm - N/A   Clear
12:12 AM 48.2 °F - 48.2 °F 100% 30.27 in 1.5 mi Calm Calm - N/A   Clear
12:13 AM 48.2 °F - 48.2 °F 100% 30.27 in 1.2 mi Calm Calm - N/A   Clear
12:14 AM 48.2 °F - 48.2 °F 100% 30.27 in 1.0 mi Calm Calm - N/A   Clear
12:17 AM 48.2 °F - 48.2 °F 100% 30.27 in 1.0 mi Calm Calm - N/A   Clear
12:19 AM 48.2 °F - 48.2 °F 100% 30.27 in 1.2 mi Calm Calm - N/A   Clear
12:20 AM 48.2 °F - 48.2 °F 100% 30.27 in 1.2 mi Calm Calm - N/A   Clear
12:26 AM 46.4 °F - 46.4 °F 100% 30.27 in 1.0 mi Calm Calm - N/A   Partly Cloudy
12:27 AM 46.4 °F - 46.4 °F 100% 30.27 in 0.8 mi Calm Calm - N/A   Partly Cloudy
12:30 AM 46.4 °F - 46.4 °F 100% 30.27 in 0.8 mi Calm Calm - N/A   Scattered Clouds
12:38 AM 46.4 °F - 46.4 °F 100% 30.27 in 0.5 mi Calm Calm - N/A Fog Fog
12:39 AM 46.4 °F - 46.4 °F 100% 30.27 in 0.5 mi Calm Calm - N/A Fog Fog
12:44 AM 48.2 °F - 46.4 °F 93% 30.27 in 0.5 mi Calm Calm - N/A Fog Fog
12:45 AM 48.2 °F - 48.2 °F 100% 30.27 in 0.8 mi Calm Calm - N/A   Partly Cloudy
12:46 AM 48.2 °F - 48.2 °F 100% 30.27 in 0.8 mi Calm Calm - N/A   Partly Cloudy
12:47 AM 48.2 °F - 48.2 °F 100% 30.27 in 0.8 mi Calm Calm - N/A   Partly Cloudy
12:48 AM 48.2 °F - 48.2 °F 100% 30.27 in 1.0 mi Calm Calm - N/A   Partly Cloudy
12:49 AM 48.2 °F - 48.2 °F 100% 30.27 in 1.2 mi Calm Calm - N/A   Partly Cloudy
12:51 AM 48.2 °F - 48.2 °F 100% 30.27 in 1.8 mi Calm Calm - N/A   Partly Cloudy
12:53 AM 48.2 °F - 48.2 °F 100% 30.27 in 4.0 mi Calm Calm - N/A   Partly Cloudy
12:55 AM 46.9 °F - 46.6 °F 99% 30.27 in 9.0 mi Calm Calm - N/A   Partly Cloudy
1:02 AM 46.4 °F - 46.4 °F 100% 30.27 in 2.5 mi Calm Calm - N/A   Partly Cloudy
1:04 AM 46.4 °F - 46.4 °F 100% 30.27 in 1.5 mi Calm Calm - N/A   Clear
1:05 AM 46.4 °F - 46.4 °F 100% 30.27 in 1.2 mi Calm Calm - N/A   Clear
1:07 AM 46.4 °F - 46.4 °F 100% 30.27 in 1.0 mi Calm Calm - N/A   Clear
1:08 AM 46.4 °F - 46.4 °F 100% 30.27 in 1.0 mi Calm Calm - N/A   Clear
1:09 AM 46.4 °F - 46.4 °F 100% 30.27 in 0.8 mi Calm Calm - N/A   Clear
1:12 AM 46.4 °F - 46.4 °F 100% 30.27 in 0.5 mi Calm Calm - N/A Fog Fog
1:13 AM 46.4 °F - 46.4 °F 100% 30.27 in 0.5 mi Calm Calm - N/A Fog Fog
1:14 AM 46.4 °F - 46.4 °F 100% 30.27 in 0.8 mi Calm Calm - N/A   Clear
1:16 AM 46.4 °F - 46.4 °F 100% 30.27 in 0.8 mi Calm Calm - N/A   Clear
1:19 AM 46.4 °F - 46.4 °F 100% 30.27 in 1.0 mi Calm Calm - N/A   Partly Cloudy
1:24 AM 46.4 °F - 46.4 °F 100% 30.27 in 0.8 mi Calm Calm - N/A   Partly Cloudy
1:26 AM 48.2 °F - 46.4 °F 93% 30.27 in 0.5 mi Calm Calm - N/A Fog Fog
1:27 AM 48.2 °F - 46.4 °F 93% 30.27 in 0.5 mi Calm Calm - N/A Fog Fog
1:28 AM 48.2 °F - 46.4 °F 93% 30.27 in 0.5 mi Calm Calm - N/A Fog Fog
1:36 AM 46.4 °F - 46.4 °F 100% 30.28 in 0.5 mi Calm Calm - N/A Fog Fog
1:37 AM 46.4 °F - 46.4 °F 100% 30.28 in 0.5 mi Calm Calm - N/A Fog Fog
1:38 AM 46.4 °F - 46.4 °F 100% 30.28 in 0.8 mi Calm Calm - N/A   Mostly Cloudy
1:42 AM 46.4 °F - 46.4 °F 100% 30.28 in 1.0 mi Calm Calm - N/A   Mostly Cloudy
1:44 AM 46.4 °F - 46.4 °F 100% 30.28 in 1.2 mi Calm Calm - N/A   Mostly Cloudy
1:48 AM 46.4 °F - 46.4 °F 100% 30.28 in 1.0 mi Calm Calm - N/A   Mostly Cloudy
1:51 AM 46.4 °F - 46.4 °F 100% 30.28 in 1.2 mi Calm Calm - N/A   Mostly Cloudy
1:53 AM 46.4 °F - 46.4 °F 100% 30.28 in 1.2 mi Calm Calm - N/A   Mostly Cloudy
1:55 AM 46.9 °F - 46.8 °F 99% 30.28 in 1.5 mi Calm Calm - N/A   Mostly Cloudy
1:56 AM 46.4 °F - 46.4 °F 100% 30.28 in 1.8 mi Calm Calm - N/A   Mostly Cloudy
1:57 AM 46.4 °F - 46.4 °F 100% 30.28 in 2.0 mi Calm Calm - N/A   Mostly Cloudy
1:58 AM 46.4 °F - 46.4 °F 100% 30.28 in 2.5 mi Calm Calm - N/A   Mostly Cloudy
1:59 AM 46.4 °F - 46.4 °F 100% 30.28 in 4.0 mi Calm Calm - N/A   Mostly Cloudy
2:53 AM 46.4 °F - 46.4 °F 100% 30.28 in 2.5 mi Calm Calm - N/A   Partly Cloudy
2:55 AM 47.1 °F - 46.8 °F 99% 30.28 in 1.8 mi Calm Calm - N/A   Clear
2:56 AM 46.4 °F - 46.4 °F 100% 30.28 in 1.5 mi Calm Calm - N/A   Clear
2:57 AM 46.4 °F - 46.4 °F 100% 30.28 in 1.5 mi Calm Calm - N/A   Clear
2:58 AM 46.4 °F - 46.4 °F 100% 30.28 in 1.2 mi Calm Calm - N/A   Clear
2:59 AM 48.2 °F - 46.4 °F 93% 30.28 in 1.0 mi Calm Calm - N/A   Clear
3:02 AM 46.4 °F - 46.4 °F 100% 30.28 in 1.2 mi Calm Calm - N/A   Clear
3:04 AM 46.4 °F - 46.4 °F 100% 30.28 in 1.2 mi Calm Calm - N/A   Clear
3:05 AM 46.4 °F - 46.4 °F 100% 30.28 in 1.5 mi Calm Calm - N/A   Clear
3:06 AM 46.4 °F - 46.4 °F 100% 30.28 in 1.8 mi Calm Calm - N/A   Clear
3:07 AM 46.4 °F - 46.4 °F 100% 30.28 in 2.0 mi Calm Calm - N/A   Clear
3:08 AM 46.4 °F - 46.4 °F 100% 30.28 in 3.0 mi Calm Calm - N/A   Clear
3:26 AM 46.4 °F - 46.4 °F 100% 30.28 in 1.8 mi Calm Calm - N/A   Partly Cloudy
3:27 AM 46.4 °F - 46.4 °F 100% 30.28 in 1.2 mi Calm Calm - N/A   Partly Cloudy
3:28 AM 46.4 °F - 46.4 °F 100% 30.28 in 1.0 mi Calm Calm - N/A   Partly Cloudy
3:29 AM 46.4 °F - 44.6 °F 93% 30.28 in 0.8 mi Calm Calm - N/A   Partly Cloudy
3:30 AM 46.4 °F - 46.4 °F 100% 30.28 in 0.5 mi Calm Calm - N/A Fog Fog
3:32 AM 46.4 °F - 46.4 °F 100% 30.28 in 0.5 mi Calm Calm - N/A Fog Fog
3:33 AM 46.4 °F - 46.4 °F 100% 30.28 in 0.5 mi Calm Calm - N/A Fog Fog
3:55 AM 45.7 °F - 45.3 °F 99% 30.28 in 0.5 mi Calm Calm - N/A Fog Fog
4:38 AM 46.4 °F - 44.6 °F 93% 30.27 in 0.5 mi Calm Calm - N/A Fog Fog
4:40 AM 46.4 °F - 46.4 °F 100% 30.27 in 0.8 mi Calm Calm - N/A   Scattered Clouds
4:41 AM 46.4 °F - 46.4 °F 100% 30.27 in 0.8 mi Calm Calm - N/A   Scattered Clouds
4:43 AM 46.4 °F - 46.4 °F 100% 30.27 in 1.0 mi Calm Calm - N/A   Scattered Clouds
4:44 AM 46.4 °F - 46.4 °F 100% 30.27 in 1.2 mi Calm Calm - N/A   Scattered Clouds
4:45 AM 46.4 °F - 46.4 °F 100% 30.27 in 1.5 mi Calm Calm - N/A   Scattered Clouds
4:46 AM 46.4 °F - 46.4 °F 100% 30.27 in 2.5 mi Calm Calm - N/A   Scattered Clouds
4:47 AM 46.4 °F - 46.4 °F 100% 30.27 in 4.0 mi Calm Calm - N/A   Scattered Clouds
4:55 AM 45.9 °F - 45.5 °F 99% 30.27 in 10.0 mi Calm Calm - N/A   Partly Cloudy
5:09 AM 46.4 °F - 46.4 °F 100% 30.27 in 2.5 mi Calm Calm - N/A   Partly Cloudy
5:10 AM 46.4 °F - 46.4 °F 100% 30.27 in 2.0 mi Calm Calm - N/A   Clear
5:11 AM 46.4 °F - 46.4 °F 100% 30.27 in 1.8 mi Calm Calm - N/A   Clear
5:12 AM 46.4 °F - 46.4 °F 100% 30.27 in 1.5 mi Calm Calm - N/A   Clear
5:13 AM 46.4 °F - 46.4 °F 100% 30.27 in 1.2 mi Calm Calm - N/A   Clear
5:14 AM 46.4 °F - 46.4 °F 100% 30.27 in 1.0 mi Calm Calm - N/A   Clear
5:15 AM 46.4 °F - 46.4 °F 100% 30.27 in 0.8 mi Calm Calm - N/A   Clear
5:18 AM 46.4 °F - 44.6 °F 93% 30.27 in 0.5 mi Calm Calm - N/A Fog Fog
5:19 AM 46.4 °F - 44.6 °F 93% 30.27 in 0.5 mi Calm Calm - N/A Fog Fog
5:37 AM 46.4 °F - 44.6 °F 93% 30.27 in 0.5 mi Calm Calm - N/A Fog Fog
5:38 AM 46.4 °F - 44.6 °F 93% 30.27 in 0.8 mi Calm Calm - N/A   Clear
5:39 AM 46.4 °F - 44.6 °F 93% 30.27 in 0.8 mi Calm Calm - N/A   Clear
5:49 AM 46.4 °F - 44.6 °F 93% 30.27 in 0.8 mi Calm Calm - N/A   Clear
5:51 AM 46.4 °F - 44.6 °F 93% 30.27 in 0.5 mi Calm Calm - N/A Fog Fog
5:55 AM 45.3 °F - 45.1 °F 99% 30.28 in 0.5 mi Calm Calm - N/A Fog Fog
6:02 AM 44.6 °F - 44.6 °F 100% 30.28 in 0.8 mi Calm Calm - N/A   Clear
6:09 AM 44.6 °F - 44.6 °F 100% 30.28 in 0.5 mi Calm Calm - N/A Fog Fog
6:13 AM 44.6 °F - 44.6 °F 100% 30.28 in 0.5 mi Calm Calm - N/A Fog Fog
6:14 AM 44.6 °F - 44.6 °F 100% 30.28 in 0.5 mi Calm Calm - N/A Fog Fog
6:17 AM 44.6 °F - 44.6 °F 100% 30.28 in 0.8 mi Calm Calm - N/A   Mostly Cloudy
6:19 AM 44.6 °F - 44.6 °F 100% 30.28 in 1.0 mi Calm Calm - N/A   Mostly Cloudy
6:20 AM 44.6 °F - 44.6 °F 100% 30.28 in 1.2 mi Calm Calm - N/A   Mostly Cloudy
6:21 AM 44.6 °F - 44.6 °F 100% 30.28 in 1.5 mi Calm Calm - N/A   Mostly Cloudy
6:22 AM 44.6 °F - 44.6 °F 100% 30.28 in 1.8 mi Calm Calm - N/A   Mostly Cloudy
6:23 AM 44.6 °F - 44.6 °F 100% 30.28 in 2.0 mi Calm Calm - N/A   Mostly Cloudy
6:27 AM 44.6 °F - 44.6 °F 100% 30.28 in 1.8 mi Calm Calm - N/A   Mostly Cloudy
6:30 AM 44.6 °F - 44.6 °F 100% 30.28 in 1.8 mi Calm Calm - N/A   Overcast
6:32 AM 44.6 °F - 44.6 °F 100% 30.28 in 2.0 mi Calm Calm - N/A   Overcast
6:34 AM 44.6 °F - 44.6 °F 100% 30.28 in 2.0 mi Calm Calm - N/A   Overcast
6:35 AM 44.6 °F - 44.6 °F 100% 30.28 in 3.0 mi Calm Calm - N/A   Overcast
6:55 AM 44.8 °F - 44.6 °F 99% 30.29 in 10.0 mi Calm Calm - N/A   Mostly Cloudy
7:15 AM 46.4 °F - 46.4 °F 100% 30.30 in 2.5 mi Calm Calm - N/A   Mostly Cloudy
7:16 AM 46.4 °F - 46.4 °F 100% 30.30 in 1.5 mi Calm Calm - N/A   Mostly Cloudy
7:17 AM 46.4 °F - 44.6 °F 93% 30.30 in 1.0 mi Calm Calm - N/A   Mostly Cloudy
7:21 AM 46.4 °F - 44.6 °F 93% 30.30 in 0.8 mi Calm Calm - N/A   Mostly Cloudy
7:23 AM 46.4 °F - 46.4 °F 100% 30.30 in 1.0 mi Calm Calm - N/A   Mostly Cloudy
7:25 AM 46.4 °F - 46.4 °F 100% 30.30 in 1.2 mi Calm Calm - N/A   Overcast
7:26 AM 46.4 °F - 46.4 °F 100% 30.30 in 1.5 mi Calm Calm - N/A   Overcast
7:27 AM 46.4 °F - 46.4 °F 100% 30.30 in 2.5 mi Calm Calm - N/A   Overcast
7:28 AM 46.4 °F - 46.4 °F 100% 30.30 in 4.0 mi Calm Calm - N/A   Overcast
7:55 AM 46.2 °F 45.0 °F 45.9 °F 99% 30.30 in 10.0 mi NNW 3.5 mph - N/A   Overcast
8:55 AM 51.3 °F - 50.9 °F 99% 30.32 in 10.0 mi Calm Calm - N/A   Partly Cloudy
9:55 AM 56.1 °F - 55.8 °F 99% 30.32 in 10.0 mi Calm Calm - N/A   Overcast
10:55 AM 68.0 °F - 55.8 °F 65% 30.31 in 10.0 mi SSE 4.6 mph - N/A   Clear
11:55 AM 72.9 °F - 57.4 °F 58% 30.29 in 10.0 mi Variable 3.5 mph - N/A   Clear
12:55 PM 75.7 °F - 53.1 °F 45% 30.26 in 10.0 mi South 4.6 mph - N/A   Mostly Cloudy
1:55 PM 78.3 °F - 50.7 °F 38% 30.23 in 10.0 mi SSW 4.6 mph - N/A   Mostly Cloudy
2:55 PM 76.8 °F - 50.4 °F 39% 30.22 in 10.0 mi South 6.9 mph - N/A   Mostly Cloudy
3:55 PM 77.9 °F - 50.5 °F 38% 30.22 in 10.0 mi South 10.4 mph - N/A   Scattered Clouds
4:55 PM 74.1 °F - 51.1 °F 44% 30.22 in 10.0 mi SSE 5.8 mph - N/A   Clear
5:55 PM 64.8 °F - 51.4 °F 62% 30.23 in 10.0 mi SE 3.5 mph - N/A   Mostly Cloudy
6:55 PM 58.5 °F - 50.7 °F 75% 30.24 in 10.0 mi South 3.5 mph - N/A   Scattered Clouds
7:55 PM 54.7 °F - 50.0 °F 84% 30.25 in 10.0 mi SSE 4.6 mph - N/A   Clear
8:55 PM 51.3 °F - 48.2 °F 89% 30.25 in 10.0 mi SE 3.5 mph - N/A   Clear
9:55 PM 50.5 °F - 49.6 °F 97% 30.26 in 10.0 mi Calm Calm - N/A   Partly Cloudy
10:57 PM 50.0 °F - 45.5 °F 85% 30.27 in 10.0 mi Calm Calm - N/A   Partly Cloudy
11:55 PM 48.4 °F - 48.2 °F 99% 30.25 in 10.0 mi Calm Calm - N/A   Clear